Dati Storici

Data ora Umidita' aria (%) Temperatura aria (°C) Rad globale (W/m²) Gonioanemometro (°) Tacoanemometro (m/s) Pioggia (mm)
08-06-2020 16:10 97.6 % 19.364 -71.286 1.747 0 0
08-06-2020 16:00 97.6 % 19.243 -69.577 1.655 0 0
08-06-2020 15:50 97.6 % 19.289 -73.776 1.067 0 0
08-06-2020 15:40 97.6 % 19.076 -67.535 1.897 0 0
08-06-2020 15:30 97.7 % 19.098 -69.279 2.796 0 0
08-06-2020 15:20 97.7 % 18.983 -72.677 1.234 0 0
08-06-2020 15:10 97.7 % 18.974 -70.638 1.774 0 0
08-06-2020 15:00 97.7 % 18.837 -71.866 4.364 0 0
08-06-2020 14:50 97.8 % 18.931 -71.673 2.658 0 0
08-06-2020 14:40 97.8 % 19.014 -71.911 1.455 0 0
08-06-2020 14:30 97.8 % 19.051 -62.772 2.33 0 0
08-06-2020 14:20 97.9 % 19.432 -65.745 1.262 0 0
08-06-2020 14:10 97.9 % 19.674 -75.355 1.47 0 0
08-06-2020 14:00 97.9 % 19.648 -73.245 2.258 0 0
08-06-2020 13:50 97.9 % 19.589 -73.387 2.014 0 0
08-06-2020 13:40 97.9 % 19.358 -70.614 0.694 0 0
08-06-2020 13:30 97.9 % 19.101 -72.52 0.431 0 0
08-06-2020 13:20 97.9 % 18.79 -76.653 -0.012 0 0
08-06-2020 13:10 97.9 % 18.171 -76.069 0.424 0 0
08-06-2020 13:00 97.9 % 17.636 -82.445 0.988 0 0

I dati sono presentati in modo automatico a scopo informativo. In seguito a verifica i dati possono subire modifiche o essere invalidati e non riportati negli archivi definitivi.